Wetterdaten: Montag, 19.08.2013
Datum Zeit Temp. Auen Feucht Auen Luftdruck Regen Richtung Richtung Windben
19.08.2013 00:00 17,9 C 93 % 1016,8 hPa 0,0 mm O-NO 68 1,6 km/h (1 Bft)
19.08.2013 00:05 17,8 C 93 % 1016,7 hPa 0,0 mm O-NO 68 0,0 km/h (0 Bft)
19.08.2013 00:10 17,8 C 93 % 1016,8 hPa 0,0 mm O-NO 68 1,6 km/h (1 Bft)
19.08.2013 00:15 17,7 C 93 % 1016,8 hPa 0,2 mm O-NO 68 1,6 km/h (1 Bft)
19.08.2013 00:20 17,7 C 93 % 1016,7 hPa 0,0 mm O-NO 68 1,6 km/h (1 Bft)
19.08.2013 00:25 17,7 C 93 % 1016,8 hPa 0,2 mm O-NO 68 0,0 km/h (0 Bft)
19.08.2013 00:30 17,8 C 94 % 1017,0 hPa 0,0 mm O-NO 68 1,6 km/h (1 Bft)
19.08.2013 00:35 17,8 C 93 % 1017,2 hPa 0,0 mm W-NW 300 3,2 km/h (1 Bft)
19.08.2013 00:40 17,9 C 94 % 1017,5 hPa 0,0 mm W 274 8,0 km/h (2 Bft)
19.08.2013 00:45 18,0 C 94 % 1017,6 hPa 0,0 mm W-NW 286 9,7 km/h (2 Bft)
19.08.2013 00:50 18,0 C 94 % 1017,4 hPa 0,2 mm W 259 6,4 km/h (2 Bft)
19.08.2013 00:55 18,0 C 93 % 1017,3 hPa 0,2 mm W-NW 288 4,8 km/h (1 Bft)
19.08.2013 01:00 18,0 C 93 % 1017,3 hPa 0,0 mm W 276 4,8 km/h (1 Bft)
19.08.2013 01:05 18,1 C 93 % 1017,2 hPa 0,2 mm W 275 6,4 km/h (2 Bft)
19.08.2013 01:10 18,1 C 93 % 1017,2 hPa 0,2 mm W-NW 290 4,8 km/h (1 Bft)
19.08.2013 01:15 18,1 C 93 % 1017,1 hPa 0,0 mm W-NW 290 3,2 km/h (1 Bft)
19.08.2013 01:20 18,1 C 94 % 1017,1 hPa 0,2 mm W-NW 292 4,8 km/h (1 Bft)
19.08.2013 01:25 18,1 C 94 % 1017,0 hPa 0,0 mm W 270 6,4 km/h (2 Bft)
19.08.2013 01:30 18,1 C 93 % 1016,8 hPa 0,2 mm W 263 3,2 km/h (1 Bft)
19.08.2013 01:35 18,0 C 93 % 1016,9 hPa 0,0 mm W 263 0,0 km/h (0 Bft)
19.08.2013 01:40 17,9 C 93 % 1016,9 hPa 0,0 mm W 263 0,0 km/h (0 Bft)
19.08.2013 01:45 17,9 C 93 % 1016,9 hPa 0,2 mm W 263 0,0 km/h (0 Bft)
19.08.2013 01:50 17,9 C 94 % 1016,9 hPa 0,0 mm W 259 0,0 km/h (0 Bft)
19.08.2013 01:55 17,8 C 94 % 1016,9 hPa 0,0 mm SO 124 4,8 km/h (1 Bft)
19.08.2013 02:00 17,8 C 94 % 1016,9 hPa 0,0 mm O-SO 109 4,8 km/h (1 Bft)
19.08.2013 02:05 17,8 C 94 % 1016,8 hPa 0,0 mm O-NO 68 4,8 km/h (1 Bft)
19.08.2013 02:10 17,7 C 94 % 1016,8 hPa 0,0 mm O-NO 68 3,2 km/h (1 Bft)
19.08.2013 02:15 17,7 C 94 % 1016,7 hPa 0,0 mm O-NO 68 0,0 km/h (0 Bft)
19.08.2013 02:20 17,6 C 94 % 1016,6 hPa 0,0 mm O-NO 68 0,0 km/h (0 Bft)
19.08.2013 02:25 17,6 C 94 % 1016,5 hPa 0,0 mm O-NO 68 0,0 km/h (0 Bft)
19.08.2013 02:30 17,6 C 94 % 1016,5 hPa 0,0 mm O-NO 68 0,0 km/h (0 Bft)
19.08.2013 02:35 17,6 C 94 % 1016,5 hPa 0,0 mm O-SO 105 1,6 km/h (1 Bft)
19.08.2013 02:40 17,6 C 94 % 1016,5 hPa 0,0 mm O-SO 105 0,0 km/h (0 Bft)
19.08.2013 02:45 17,6 C 94 % 1016,4 hPa 0,0 mm O-SO 105 0,0 km/h (0 Bft)
19.08.2013 02:50 17,6 C 94 % 1016,4 hPa 0,0 mm O-SO 105 0,0 km/h (0 Bft)
19.08.2013 02:55 17,6 C 94 % 1016,3 hPa 0,0 mm O-SO 105 0,0 km/h (0 Bft)
19.08.2013 03:00 17,6 C 94 % 1016,3 hPa 0,0 mm O-SO 105 1,6 km/h (1 Bft)
19.08.2013 03:05 17,6 C 94 % 1016,2 hPa 0,2 mm O-SO 105 0,0 km/h (0 Bft)
19.08.2013 03:10 17,5 C 94 % 1016,1 hPa 0,0 mm O-SO 105 1,6 km/h (1 Bft)
19.08.2013 03:15 17,5 C 94 % 1016,0 hPa 0,0 mm O-SO 105 1,6 km/h (1 Bft)
19.08.2013 03:20 17,5 C 94 % 1015,9 hPa 0,0 mm O-SO 105 0,0 km/h (0 Bft)
19.08.2013 03:25 17,4 C 94 % 1015,9 hPa 0,0 mm O-SO 105 0,0 km/h (0 Bft)
19.08.2013 03:30 17,4 C 94 % 1015,9 hPa 0,0 mm O-SO 105 0,0 km/h (0 Bft)
19.08.2013 03:35 17,4 C 94 % 1015,9 hPa 0,0 mm O-SO 105 0,0 km/h (0 Bft)
19.08.2013 03:40 17,4 C 94 % 1015,8 hPa 0,0 mm O-SO 105 0,0 km/h (0 Bft)
19.08.2013 03:45 17,5 C 95 % 1015,7 hPa 0,0 mm O-SO 105 0,0 km/h (0 Bft)
19.08.2013 03:50 17,5 C 95 % 1015,7 hPa 0,0 mm O-SO 105 1,6 km/h (1 Bft)
19.08.2013 03:55 17,5 C 95 % 1015,7 hPa 0,0 mm O-SO 105 0,0 km/h (0 Bft)
19.08.2013 04:00 17,5 C 95 % 1015,6 hPa 0,0 mm O-SO 105 0,0 km/h (0 Bft)
19.08.2013 04:05 17,4 C 95 % 1015,6 hPa 0,0 mm O-SO 105 0,0 km/h (0 Bft)
19.08.2013 04:10 17,4 C 95 % 1015,5 hPa 0,0 mm O-SO 105 0,0 km/h (0 Bft)
19.08.2013 04:15 17,4 C 95 % 1015,5 hPa 0,0 mm O-SO 105 0,0 km/h (0 Bft)
19.08.2013 04:20 17,5 C 95 % 1015,4 hPa 0,0 mm O-SO 105 0,0 km/h (0 Bft)
19.08.2013 04:25 17,4 C 95 % 1015,4 hPa 0,0 mm O-SO 105 0,0 km/h (0 Bft)
19.08.2013 04:30 17,4 C 95 % 1015,4 hPa 0,0 mm O-SO 105 0,0 km/h (0 Bft)
19.08.2013 04:35 17,5 C 95 % 1015,3 hPa 0,0 mm O-SO 105 0,0 km/h (0 Bft)
19.08.2013 04:40 17,3 C 95 % 1015,3 hPa 0,0 mm O-SO 105 0,0 km/h (0 Bft)
19.08.2013 04:45 17,3 C 95 % 1015,2 hPa 0,0 mm O-SO 105 0,0 km/h (0 Bft)
19.08.2013 04:50 17,3 C 95 % 1015,2 hPa 0,0 mm O-SO 105 0,0 km/h (0 Bft)
19.08.2013 04:55 17,3 C 95 % 1015,2 hPa 0,0 mm O-SO 105 0,0 km/h (0 Bft)
19.08.2013 05:00 17,4 C 95 % 1015,1 hPa 0,0 mm O-SO 105 0,0 km/h (0 Bft)
19.08.2013 05:05 17,4 C 95 % 1015,1 hPa 0,0 mm O-SO 105 1,6 km/h (1 Bft)
19.08.2013 05:10 17,4 C 95 % 1015,1 hPa 0,0 mm O-SO 105 0,0 km/h (0 Bft)
19.08.2013 05:15 17,3 C 95 % 1015,1 hPa 0,0 mm O-SO 105 0,0 km/h (0 Bft)
19.08.2013 05:20 17,4 C 95 % 1015,0 hPa 0,0 mm O-SO 105 0,0 km/h (0 Bft)
19.08.2013 05:25 17,4 C 95 % 1015,0 hPa 0,0 mm O-SO 105 3,2 km/h (1 Bft)
19.08.2013 05:30 17,5 C 95 % 1015,1 hPa 0,0 mm O-SO 105 1,6 km/h (1 Bft)
19.08.2013 05:35 17,5 C 95 % 1015,1 hPa 0,0 mm O-SO 107 3,2 km/h (1 Bft)
19.08.2013 05:40 17,5 C 95 % 1015,1 hPa 0,0 mm O-SO 107 0,0 km/h (0 Bft)
19.08.2013 05:45 17,4 C 95 % 1015,1 hPa 0,0 mm O-SO 107 0,0 km/h (0 Bft)
19.08.2013 05:50 17,4 C 95 % 1015,0 hPa 0,0 mm O-SO 107 1,6 km/h (1 Bft)
19.08.2013 05:55 17,4 C 95 % 1015,2 hPa 0,0 mm O-SO 107 0,0 km/h (0 Bft)
19.08.2013 06:00 17,4 C 95 % 1015,1 hPa 0,0 mm O-SO 107 0,0 km/h (0 Bft)
19.08.2013 06:05 17,4 C 95 % 1015,2 hPa 0,0 mm O-SO 107 0,0 km/h (0 Bft)
19.08.2013 06:10 17,3 C 95 % 1015,2 hPa 0,0 mm O-SO 107 0,0 km/h (0 Bft)
19.08.2013 06:15 17,3 C 95 % 1015,2 hPa 0,0 mm O-SO 107 0,0 km/h (0 Bft)
19.08.2013 06:20 17,2 C 95 % 1015,2 hPa 0,0 mm O-SO 107 0,0 km/h (0 Bft)
19.08.2013 06:25 17,2 C 95 % 1015,2 hPa 0,0 mm O-SO 107 0,0 km/h (0 Bft)
19.08.2013 06:30 17,2 C 95 % 1015,2 hPa 0,0 mm O-SO 107 0,0 km/h (0 Bft)
19.08.2013 06:35 17,3 C 95 % 1015,3 hPa 0,0 mm O-SO 107 0,0 km/h (0 Bft)
19.08.2013 06:40 17,3 C 95 % 1015,3 hPa 0,0 mm O-SO 107 0,0 km/h (0 Bft)
19.08.2013 06:45 17,3 C 95 % 1015,3 hPa 0,0 mm O 99 3,2 km/h (1 Bft)
19.08.2013 06:50 17,3 C 95 % 1015,2 hPa 0,0 mm O 99 3,2 km/h (1 Bft)
19.08.2013 06:55 17,3 C 95 % 1015,2 hPa 0,0 mm O-SO 105 3,2 km/h (1 Bft)
19.08.2013 07:00 17,3 C 95 % 1015,2 hPa 0,0 mm O-SO 106 3,2 km/h (1 Bft)
19.08.2013 07:05 17,4 C 95 % 1015,1 hPa 0,0 mm S 169 3,2 km/h (1 Bft)
19.08.2013 07:10 17,4 C 95 % 1015,1 hPa 0,0 mm S-SO 150 4,8 km/h (1 Bft)
19.08.2013 07:15 17,3 C 95 % 1015,1 hPa 0,0 mm O-SO 113 4,8 km/h (1 Bft)
19.08.2013 07:20 17,3 C 95 % 1015,1 hPa 0,0 mm O-SO 117 4,8 km/h (1 Bft)
19.08.2013 07:25 17,3 C 95 % 1015,1 hPa 0,0 mm O-SO 122 4,8 km/h (1 Bft)
19.08.2013 07:30 17,4 C 95 % 1015,0 hPa 0,0 mm O-SO 113 4,8 km/h (1 Bft)
19.08.2013 07:35 17,5 C 95 % 1014,9 hPa 0,0 mm O-SO 113 3,2 km/h (1 Bft)
19.08.2013 07:40 17,5 C 95 % 1014,9 hPa 0,0 mm O-SO 102 3,2 km/h (1 Bft)
19.08.2013 07:45 17,6 C 95 % 1014,9 hPa 0,0 mm O 98 1,6 km/h (1 Bft)
19.08.2013 07:50 17,7 C 96 % 1014,8 hPa 0,0 mm O 98 1,6 km/h (1 Bft)
19.08.2013 07:55 17,8 C 95 % 1014,7 hPa 0,0 mm S-SO 163 4,8 km/h (1 Bft)
19.08.2013 08:00 17,8 C 95 % 1014,7 hPa 0,0 mm SO 142 3,2 km/h (1 Bft)
19.08.2013 08:05 17,9 C 95 % 1014,6 hPa 0,0 mm S-SO 148 4,8 km/h (1 Bft)
19.08.2013 08:10 17,9 C 95 % 1014,6 hPa 0,0 mm O-SO 113 4,8 km/h (1 Bft)
19.08.2013 08:15 17,9 C 95 % 1014,4 hPa 0,0 mm O-SO 107 3,2 km/h (1 Bft)
19.08.2013 08:20 17,8 C 95 % 1014,4 hPa 0,0 mm SO 129 3,2 km/h (1 Bft)
19.08.2013 08:25 17,9 C 95 % 1014,5 hPa 0,0 mm SO 129 0,0 km/h (0 Bft)
19.08.2013 08:30 18,0 C 95 % 1014,7 hPa 0,0 mm SO 129 0,0 km/h (0 Bft)
19.08.2013 08:35 18,2 C 95 % 1014,7 hPa 0,0 mm NO 44 3,2 km/h (1 Bft)
19.08.2013 08:40 18,3 C 95 % 1014,7 hPa 0,0 mm O-NO 71 4,8 km/h (1 Bft)
19.08.2013 08:45 18,4 C 94 % 1014,7 hPa 0,0 mm O-SO 109 4,8 km/h (1 Bft)
19.08.2013 08:50 18,6 C 94 % 1014,6 hPa 0,0 mm O-SO 107 4,8 km/h (1 Bft)
19.08.2013 08:55 18,6 C 93 % 1014,5 hPa 0,0 mm O-SO 118 6,4 km/h (2 Bft)
19.08.2013 09:00 18,6 C 93 % 1014,5 hPa 0,0 mm SO 128 6,4 km/h (2 Bft)
19.08.2013 09:05 18,8 C 93 % 1014,5 hPa 0,0 mm O-SO 108 4,8 km/h (1 Bft)
19.08.2013 09:10 19,3 C 93 % 1014,5 hPa 0,0 mm O-SO 120 4,8 km/h (1 Bft)
19.08.2013 09:15 19,5 C 91 % 1014,5 hPa 0,0 mm SO 125 6,4 km/h (2 Bft)
19.08.2013 09:20 19,6 C 91 % 1014,5 hPa 0,0 mm O 96 4,8 km/h (1 Bft)
19.08.2013 09:25 19,7 C 90 % 1014,5 hPa 0,0 mm O-NO 67 4,8 km/h (1 Bft)
19.08.2013 09:30 19,8 C 90 % 1014,4 hPa 0,0 mm O-NO 67 4,8 km/h (1 Bft)
19.08.2013 09:35 20,2 C 89 % 1014,4 hPa 0,0 mm S-SO 150 6,4 km/h (2 Bft)
19.08.2013 09:40 20,4 C 88 % 1014,4 hPa 0,0 mm O-SO 107 9,7 km/h (2 Bft)
19.08.2013 09:45 20,5 C 87 % 1014,4 hPa 0,0 mm O-SO 109 6,4 km/h (2 Bft)
19.08.2013 09:50 20,6 C 87 % 1014,4 hPa 0,0 mm SO 146 6,4 km/h (2 Bft)
19.08.2013 09:55 20,6 C 87 % 1014,3 hPa 0,0 mm SO 137 4,8 km/h (1 Bft)
19.08.2013 10:00 20,9 C 87 % 1014,3 hPa 0,0 mm SO 140 4,8 km/h (1 Bft)
19.08.2013 10:05 20,9 C 86 % 1014,2 hPa 0,0 mm SO 143 4,8 km/h (1 Bft)
19.08.2013 10:10 20,9 C 86 % 1014,2 hPa 0,0 mm O-NO 61 4,8 km/h (1 Bft)
19.08.2013 10:15 21,0 C 85 % 1014,2 hPa 0,0 mm O-SO 122 8,0 km/h (2 Bft)
19.08.2013 10:20 21,2 C 85 % 1014,1 hPa 0,0 mm O 99 4,8 km/h (1 Bft)
19.08.2013 10:25 21,6 C 83 % 1014,2 hPa 0,0 mm O 97 6,4 km/h (2 Bft)
19.08.2013 10:30 21,6 C 84 % 1014,2 hPa 0,0 mm S-SO 162 6,4 km/h (2 Bft)
19.08.2013 10:35 21,9 C 83 % 1014,1 hPa 0,0 mm SO 142 6,4 km/h (2 Bft)
19.08.2013 10:40 22,2 C 82 % 1014,1 hPa 0,0 mm SO 132 6,4 km/h (2 Bft)
19.08.2013 10:45 21,9 C 83 % 1014,0 hPa 0,0 mm S-SO 147 6,4 km/h (2 Bft)
19.08.2013 10:50 22,2 C 84 % 1014,0 hPa 0,0 mm SO 134 8,0 km/h (2 Bft)
19.08.2013 10:55 21,9 C 82 % 1014,0 hPa 0,0 mm O 96 6,4 km/h (2 Bft)
19.08.2013 11:00 21,9 C 81 % 1013,9 hPa 0,0 mm O-SO 108 6,4 km/h (2 Bft)
19.08.2013 11:05 22,5 C 85 % 1013,9 hPa 0,0 mm SO 132 6,4 km/h (2 Bft)
19.08.2013 11:10 22,5 C 82 % 1014,0 hPa 0,0 mm SO 144 8,0 km/h (2 Bft)
19.08.2013 11:15 22,6 C 82 % 1014,0 hPa 0,0 mm O-SO 109 9,7 km/h (2 Bft)
19.08.2013 11:20 22,5 C 81 % 1014,0 hPa 0,0 mm SO 143 4,8 km/h (1 Bft)
19.08.2013 11:25 22,4 C 81 % 1014,0 hPa 0,0 mm O 91 6,4 km/h (2 Bft)
19.08.2013 11:30 22,3 C 81 % 1014,0 hPa 0,0 mm SO 136 3,2 km/h (1 Bft)
19.08.2013 11:35 22,3 C 80 % 1013,9 hPa 0,0 mm SO 138 4,8 km/h (1 Bft)
19.08.2013 11:40 22,3 C 80 % 1013,9 hPa 0,0 mm SO 138 4,8 km/h (1 Bft)
19.08.2013 11:45 22,4 C 79 % 1013,9 hPa 0,0 mm SO 138 3,2 km/h (1 Bft)
19.08.2013 11:50 22,5 C 79 % 1013,9 hPa 0,0 mm SO 139 3,2 km/h (1 Bft)
19.08.2013 11:55 22,5 C 78 % 1013,9 hPa 0,0 mm SO 139 3,2 km/h (1 Bft)
19.08.2013 12:00 22,8 C 79 % 1013,9 hPa 0,0 mm SO 139 0,0 km/h (0 Bft)
19.08.2013 12:05 23,2 C 74 % 1014,0 hPa 0,0 mm SO 139 1,6 km/h (1 Bft)
19.08.2013 12:10 23,0 C 78 % 1014,0 hPa 0,0 mm SO 139 1,6 km/h (1 Bft)
19.08.2013 12:15 23,4 C 77 % 1014,1 hPa 0,0 mm W-SW 244 6,4 km/h (2 Bft)
19.08.2013 12:20 23,6 C 77 % 1014,3 hPa 0,0 mm W 270 9,7 km/h (2 Bft)
19.08.2013 12:25 23,4 C 77 % 1014,5 hPa 0,0 mm W-NW 286 14,5 km/h (3 Bft)
19.08.2013 12:30 23,0 C 77 % 1014,7 hPa 0,2 mm W 274 20,9 km/h (4 Bft)
19.08.2013 12:35 22,5 C 80 % 1014,8 hPa 0,0 mm W-SW 244 22,5 km/h (4 Bft)
19.08.2013 12:40 22,0 C 80 % 1014,9 hPa 0,0 mm W 281 20,9 km/h (4 Bft)
19.08.2013 12:45 21,8 C 79 % 1014,9 hPa 0,0 mm W 274 22,5 km/h (4 Bft)
19.08.2013 12:50 21,7 C 79 % 1015,0 hPa 0,0 mm W 259 19,3 km/h (3 Bft)
19.08.2013 12:55 21,6 C 79 % 1015,1 hPa 0,0 mm W 263 20,9 km/h (4 Bft)
19.08.2013 13:00 21,6 C 81 % 1015,1 hPa 0,0 mm W-SW 251 12,9 km/h (3 Bft)
19.08.2013 13:05 21,6 C 81 % 1015,1 hPa 0,0 mm W-NW 283 14,5 km/h (3 Bft)
19.08.2013 13:10 21,7 C 81 % 1015,0 hPa 0,0 mm W 281 17,7 km/h (3 Bft)
19.08.2013 13:15 22,1 C 80 % 1015,0 hPa 0,0 mm W 273 16,1 km/h (3 Bft)
19.08.2013 13:20 22,3 C 78 % 1014,9 hPa 0,0 mm W-SW 246 19,3 km/h (3 Bft)
19.08.2013 13:25 22,4 C 78 % 1014,9 hPa 0,0 mm W 276 16,1 km/h (3 Bft)
19.08.2013 13:30 22,8 C 77 % 1014,8 hPa 0,0 mm SW 236 20,9 km/h (4 Bft)
19.08.2013 13:35 22,6 C 76 % 1015,0 hPa 0,0 mm W 277 19,3 km/h (3 Bft)
19.08.2013 13:40 22,5 C 75 % 1015,0 hPa 0,0 mm W 263 19,3 km/h (3 Bft)
19.08.2013 13:45 22,5 C 76 % 1015,0 hPa 0,0 mm W 261 17,7 km/h (3 Bft)
19.08.2013 13:50 22,7 C 76 % 1015,1 hPa 0,0 mm W 267 22,5 km/h (4 Bft)
19.08.2013 13:55 22,8 C 73 % 1015,0 hPa 0,0 mm W-SW 250 19,3 km/h (3 Bft)
19.08.2013 14:00 22,7 C 72 % 1015,1 hPa 0,0 mm W 269 16,1 km/h (3 Bft)
19.08.2013 14:05 22,7 C 71 % 1015,2 hPa 0,0 mm W 271 16,1 km/h (3 Bft)
19.08.2013 14:10 22,6 C 71 % 1015,2 hPa 0,0 mm W-SW 254 16,1 km/h (3 Bft)
19.08.2013 14:15 22,3 C 71 % 1015,2 hPa 0,0 mm W-SW 251 17,7 km/h (3 Bft)
19.08.2013 14:20 22,2 C 71 % 1015,1 hPa 0,0 mm W 273 22,5 km/h (4 Bft)
19.08.2013 14:25 22,1 C 72 % 1015,1 hPa 0,0 mm W-NW 288 14,5 km/h (3 Bft)
19.08.2013 14:30 22,0 C 73 % 1015,1 hPa 0,0 mm W 275 14,5 km/h (3 Bft)
19.08.2013 14:35 21,9 C 75 % 1015,1 hPa 0,0 mm W 273 14,5 km/h (3 Bft)
19.08.2013 14:40 21,8 C 76 % 1015,0 hPa 0,0 mm W 273 11,3 km/h (2 Bft)
19.08.2013 14:45 21,6 C 74 % 1015,1 hPa 0,0 mm W-SW 244 19,3 km/h (3 Bft)
19.08.2013 14:50 21,3 C 75 % 1015,1 hPa 0,0 mm W 263 12,9 km/h (3 Bft)
19.08.2013 14:55 21,2 C 76 % 1015,1 hPa 0,0 mm W 269 12,9 km/h (3 Bft)
19.08.2013 15:00 21,0 C 76 % 1015,1 hPa 0,0 mm W-SW 248 14,5 km/h (3 Bft)
19.08.2013 15:05 20,7 C 78 % 1015,1 hPa 0,0 mm W 261 16,1 km/h (3 Bft)
19.08.2013 15:10 20,4 C 81 % 1015,2 hPa 0,0 mm W-SW 257 14,5 km/h (3 Bft)
19.08.2013 15:15 20,3 C 84 % 1015,2 hPa 0,0 mm W 263 12,9 km/h (3 Bft)
19.08.2013 15:20 20,1 C 84 % 1015,4 hPa 0,0 mm W-NW 285 8,0 km/h (2 Bft)
19.08.2013 15:25 19,9 C 85 % 1015,5 hPa 0,0 mm W-NW 282 9,7 km/h (2 Bft)
19.08.2013 15:30 19,8 C 84 % 1015,6 hPa 0,0 mm W-NW 294 9,7 km/h (2 Bft)
19.08.2013 15:35 19,7 C 84 % 1015,5 hPa 0,0 mm W-NW 289 8,0 km/h (2 Bft)
19.08.2013 15:40 19,6 C 85 % 1015,6 hPa 0,0 mm W 275 9,7 km/h (2 Bft)
19.08.2013 15:45 19,5 C 85 % 1015,6 hPa 0,0 mm W-NW 290 4,8 km/h (1 Bft)
19.08.2013 15:50 19,4 C 85 % 1015,6 hPa 0,0 mm SO 140 3,2 km/h (1 Bft)
19.08.2013 15:55 19,2 C 85 % 1015,7 hPa 0,0 mm S-SO 155 3,2 km/h (1 Bft)
19.08.2013 16:00 19,2 C 86 % 1015,7 hPa 0,0 mm W-SW 239 3,2 km/h (1 Bft)
19.08.2013 16:05 19,3 C 86 % 1015,9 hPa 0,0 mm W 273 4,8 km/h (1 Bft)
19.08.2013 16:10 19,3 C 86 % 1015,9 hPa 0,0 mm W 269 6,4 km/h (2 Bft)
19.08.2013 16:15 19,3 C 86 % 1016,0 hPa 0,0 mm W 269 4,8 km/h (1 Bft)
19.08.2013 16:20 19,3 C 86 % 1016,0 hPa 0,0 mm W 273 6,4 km/h (2 Bft)
19.08.2013 16:25 19,2 C 85 % 1016,1 hPa 0,0 mm W 271 8,0 km/h (2 Bft)
19.08.2013 16:30 19,1 C 84 % 1016,2 hPa 0,0 mm W 281 4,8 km/h (1 Bft)
19.08.2013 16:35 18,9 C 84 % 1016,1 hPa 0,0 mm W 267 16,1 km/h (3 Bft)
19.08.2013 16:40 18,7 C 85 % 1016,2 hPa 0,2 mm W 263 16,1 km/h (3 Bft)
19.08.2013 16:45 18,3 C 87 % 1016,3 hPa 0,4 mm W 277 11,3 km/h (2 Bft)
19.08.2013 16:50 18,0 C 89 % 1016,3 hPa 0,4 mm W 270 8,0 km/h (2 Bft)
19.08.2013 16:55 17,8 C 89 % 1016,1 hPa 0,4 mm W-NW 285 6,4 km/h (2 Bft)
19.08.2013 17:00 17,7 C 90 % 1016,1 hPa 0,0 mm W 281 8,0 km/h (2 Bft)
19.08.2013 17:05 17,6 C 91 % 1016,3 hPa 0,2 mm W-NW 287 6,4 km/h (2 Bft)
19.08.2013 17:10 17,5 C 91 % 1016,5 hPa 0,0 mm W-NW 287 3,2 km/h (1 Bft)
19.08.2013 17:15 17,3 C 91 % 1016,4 hPa 0,0 mm W-NW 287 0,0 km/h (0 Bft)
19.08.2013 17:20 17,3 C 91 % 1016,5 hPa 0,0 mm W-NW 287 3,2 km/h (1 Bft)
19.08.2013 17:25 17,3 C 91 % 1016,5 hPa 0,0 mm W-NW 287 1,6 km/h (1 Bft)
19.08.2013 17:30 17,3 C 91 % 1016,5 hPa 0,0 mm W-NW 287 3,2 km/h (1 Bft)
19.08.2013 17:35 17,2 C 92 % 1016,6 hPa 0,2 mm N 355 4,8 km/h (1 Bft)
19.08.2013 17:40 17,1 C 92 % 1016,6 hPa 0,2 mm N 355 1,6 km/h (1 Bft)
19.08.2013 17:45 17,0 C 92 % 1016,6 hPa 0,2 mm N 355 0,0 km/h (0 Bft)
19.08.2013 17:50 17,0 C 92 % 1016,6 hPa 0,4 mm N 355 0,0 km/h (0 Bft)
19.08.2013 17:55 17,0 C 93 % 1016,6 hPa 0,4 mm N 355 0,0 km/h (0 Bft)
19.08.2013 18:00 16,9 C 92 % 1016,6 hPa 0,4 mm N 355 0,0 km/h (0 Bft)
19.08.2013 18:05 16,9 C 93 % 1016,6 hPa 0,4 mm N 355 0,0 km/h (0 Bft)
19.08.2013 18:10 16,8 C 92 % 1016,7 hPa 0,4 mm N 355 1,6 km/h (1 Bft)
19.08.2013 18:15 16,8 C 92 % 1016,8 hPa 0,4 mm N 355 0,0 km/h (0 Bft)
19.08.2013 18:20 16,8 C 92 % 1017,1 hPa 0,2 mm N 355 0,0 km/h (0 Bft)
19.08.2013 18:25 17,0 C 93 % 1017,3 hPa 0,4 mm W-NW 295 3,2 km/h (1 Bft)
19.08.2013 18:30 16,9 C 93 % 1017,5 hPa 0,8 mm W-NW 284 4,8 km/h (1 Bft)
19.08.2013 18:35 16,9 C 93 % 1017,6 hPa 1,4 mm W-NW 284 1,6 km/h (1 Bft)
19.08.2013 18:40 16,8 C 93 % 1017,5 hPa 0,8 mm W 275 6,4 km/h (2 Bft)
19.08.2013 18:45 16,7 C 93 % 1017,6 hPa 0,4 mm W 275 1,6 km/h (1 Bft)
19.08.2013 18:50 16,7 C 93 % 1017,7 hPa 0,4 mm W 275 3,2 km/h (1 Bft)
19.08.2013 18:55 16,7 C 93 % 1017,7 hPa 0,4 mm W 275 3,2 km/h (1 Bft)
19.08.2013 19:00 16,7 C 93 % 1017,8 hPa 0,6 mm W 275 3,2 km/h (1 Bft)
19.08.2013 19:05 16,6 C 93 % 1017,8 hPa 0,4 mm W 275 3,2 km/h (1 Bft)
19.08.2013 19:10 16,6 C 93 % 1017,8 hPa 0,4 mm W 260 4,8 km/h (1 Bft)
19.08.2013 19:15 16,5 C 93 % 1017,9 hPa 0,6 mm W 274 4,8 km/h (1 Bft)
19.08.2013 19:20 16,5 C 93 % 1018,1 hPa 0,4 mm W 273 3,2 km/h (1 Bft)
19.08.2013 19:25 16,5 C 93 % 1018,2 hPa 0,6 mm W 273 4,8 km/h (1 Bft)
19.08.2013 19:30 16,5 C 93 % 1018,3 hPa 0,4 mm W 273 3,2 km/h (1 Bft)
19.08.2013 19:35 16,5 C 94 % 1018,4 hPa 0,4 mm W 273 3,2 km/h (1 Bft)
19.08.2013 19:40 16,5 C 94 % 1018,4 hPa 0,4 mm W 273 3,2 km/h (1 Bft)
19.08.2013 19:45 16,4 C 94 % 1018,4 hPa 0,2 mm W 273 3,2 km/h (1 Bft)
19.08.2013 19:50 16,4 C 94 % 1018,5 hPa 0,4 mm W 273 3,2 km/h (1 Bft)
19.08.2013 19:55 16,4 C 94 % 1018,5 hPa 0,4 mm W 271 9,7 km/h (2 Bft)
19.08.2013 20:00 16,3 C 93 % 1018,5 hPa 0,4 mm W 277 9,7 km/h (2 Bft)
19.08.2013 20:05 16,2 C 93 % 1018,6 hPa 0,4 mm W 276 8,0 km/h (2 Bft)
19.08.2013 20:10 16,2 C 93 % 1018,6 hPa 0,4 mm W 277 8,0 km/h (2 Bft)
19.08.2013 20:15 16,2 C 94 % 1018,7 hPa 0,4 mm W 266 6,4 km/h (2 Bft)
19.08.2013 20:20 16,1 C 94 % 1018,9 hPa 0,2 mm W 277 4,8 km/h (1 Bft)
19.08.2013 20:25 16,1 C 94 % 1019,0 hPa 0,2 mm W 262 14,5 km/h (3 Bft)
19.08.2013 20:30 15,9 C 93 % 1019,2 hPa 0,2 mm W 278 11,3 km/h (2 Bft)
19.08.2013 20:35 15,7 C 93 % 1019,3 hPa 0,2 mm W 273 14,5 km/h (3 Bft)
19.08.2013 20:40 15,6 C 93 % 1019,4 hPa 0,2 mm W-NW 287 12,9 km/h (3 Bft)
19.08.2013 20:45 15,4 C 93 % 1019,4 hPa 0,2 mm W 264 9,7 km/h (2 Bft)
19.08.2013 20:50 15,4 C 92 % 1019,6 hPa 0,0 mm W-SW 258 8,0 km/h (2 Bft)
19.08.2013 20:55 15,4 C 93 % 1019,6 hPa 0,2 mm W 270 9,7 km/h (2 Bft)
19.08.2013 21:00 15,3 C 93 % 1019,8 hPa 0,0 mm W 271 8,0 km/h (2 Bft)
19.08.2013 21:05 15,3 C 93 % 1019,9 hPa 0,2 mm W 264 8,0 km/h (2 Bft)
19.08.2013 21:10 15,3 C 93 % 1019,8 hPa 0,0 mm W 269 3,2 km/h (1 Bft)
19.08.2013 21:15 15,3 C 93 % 1020,1 hPa 0,2 mm W 281 4,8 km/h (1 Bft)
19.08.2013 21:20 15,3 C 93 % 1020,3 hPa 0,0 mm W 272 4,8 km/h (1 Bft)
19.08.2013 21:25 15,3 C 93 % 1020,4 hPa 0,0 mm W 269 6,4 km/h (2 Bft)
19.08.2013 21:30 15,2 C 93 % 1020,5 hPa 0,0 mm W 269 4,8 km/h (1 Bft)
19.08.2013 21:35 15,1 C 93 % 1020,6 hPa 0,0 mm W-NW 284 4,8 km/h (1 Bft)
19.08.2013 21:40 15,1 C 93 % 1020,8 hPa 0,0 mm W 276 4,8 km/h (1 Bft)
19.08.2013 21:45 15,0 C 93 % 1020,8 hPa 0,0 mm W 275 4,8 km/h (1 Bft)
19.08.2013 21:50 14,9 C 93 % 1020,7 hPa 0,0 mm W 275 3,2 km/h (1 Bft)
19.08.2013 21:55 14,9 C 93 % 1020,9 hPa 0,0 mm W 275 3,2 km/h (1 Bft)
19.08.2013 22:00 14,9 C 93 % 1020,9 hPa 0,0 mm W 281 4,8 km/h (1 Bft)
19.08.2013 22:05 14,9 C 93 % 1020,8 hPa 0,0 mm W 268 6,4 km/h (2 Bft)
19.08.2013 22:10 14,8 C 93 % 1020,7 hPa 0,0 mm W 270 3,2 km/h (1 Bft)
19.08.2013 22:15 14,8 C 93 % 1020,9 hPa 0,0 mm W 269 4,8 km/h (1 Bft)
19.08.2013 22:20 14,8 C 93 % 1021,0 hPa 0,0 mm W-SW 257 4,8 km/h (1 Bft)
19.08.2013 22:25 14,6 C 93 % 1020,9 hPa 0,0 mm W-NW 284 4,8 km/h (1 Bft)
19.08.2013 22:30 14,4 C 93 % 1021,0 hPa 0,0 mm W 281 6,4 km/h (2 Bft)
19.08.2013 22:35 14,3 C 93 % 1020,9 hPa 0,0 mm W-NW 289 6,4 km/h (2 Bft)
19.08.2013 22:40 14,2 C 93 % 1020,8 hPa 0,0 mm W-NW 290 4,8 km/h (1 Bft)
19.08.2013 22:45 14,2 C 93 % 1020,9 hPa 0,0 mm W-NW 294 4,8 km/h (1 Bft)
19.08.2013 22:50 14,3 C 93 % 1020,9 hPa 0,0 mm W-NW 292 3,2 km/h (1 Bft)
19.08.2013 22:55 14,3 C 93 % 1021,0 hPa 0,0 mm W 271 6,4 km/h (2 Bft)
19.08.2013 23:00 14,3 C 93 % 1021,1 hPa 0,0 mm W 272 4,8 km/h (1 Bft)
19.08.2013 23:05 14,3 C 93 % 1021,1 hPa 0,0 mm W 272 1,6 km/h (1 Bft)
19.08.2013 23:10 14,3 C 93 % 1021,1 hPa 0,0 mm W 272 1,6 km/h (1 Bft)
19.08.2013 23:15 14,2 C 93 % 1021,2 hPa 0,0 mm W 272 0,0 km/h (0 Bft)
19.08.2013 23:20 14,2 C 93 % 1021,1 hPa 0,0 mm W 272 0,0 km/h (0 Bft)
19.08.2013 23:25 14,1 C 93 % 1021,3 hPa 0,0 mm W 272 0,0 km/h (0 Bft)
19.08.2013 23:30 14,1 C 93 % 1021,3 hPa 0,0 mm W 272 0,0 km/h (0 Bft)
19.08.2013 23:35 14,1 C 93 % 1021,4 hPa 0,0 mm W 272 0,0 km/h (0 Bft)
19.08.2013 23:40 14,1 C 94 % 1021,4 hPa 0,0 mm W 272 1,6 km/h (1 Bft)
19.08.2013 23:45 14,2 C 94 % 1021,4 hPa 0,0 mm W 272 0,0 km/h (0 Bft)
19.08.2013 23:50 14,2 C 94 % 1021,6 hPa 0,0 mm W 272 0,0 km/h (0 Bft)
19.08.2013 23:55 14,2 C 94 % 1021,7 hPa 0,0 mm W 272 0,0 km/h (0 Bft)
_ Min-Zeit 23:25 14:05 11:00 - - - 00:05
Minimum _ 14,1 C 71 % 1013,9 hPa - - - 0,0 km/h (0 Bft)
_ Max-Zeit 12:20 07:50 23:55 18:35 - - 12:35
Maximum _ 23,6 C 96 % 1021,7 hPa 1,4 mm - - 22,5 km/h
W-SW (4 Bft)
Durchschnitt _ 18,3 C 90 % 1016,4 hPa #20,2 mm W - 5,4 km/h (1 Bft)